Location: ????????
(60.4333°N, 46.4710°E)
Time: 04:46:35
(UTC+00:00)

SL-8 Rocket - Pass Details

Date: 25 November 2020
Orbit: 958 x 990 km, 82.9° (Epoch: 19 January)

Event Time Altitude Azimuth Distance (km) Brightness Sun altitude
Rises 14:40:43 0° 346° (NNW) 3,668 7.1 -18.0°
Reaches altitude 10° 14:43:13 10° 346° (NNW) 2,721 6.4 -18.3°
Maximum altitude 14:49:28 86° 260° (W) 983 4.0 -19.1°
Drops below altitude 10° 14:55:44 10° 171° (S) 2,726 6.3 -19.8°
Sets 14:58:14 0° 171° (S) 3,675 7.0 -20.2°
